Погода в Хайрпуре

Пакистан     27°31′14″N   68°44′47″E
темп.,
°C
ветер,
м/с
пор.,
м/с
влажн.,
%
обл.,
%
осадки,
мм/ч
давл.,
гПа
погр.,
м
21 апреля, ср
ср2123:00+27всв711382 0.1 1007449
02:00+24всв913485 0.0 1007544
05:00+22всв611520 0.0 1007385
08:00+24всв911430 0.0 1011647
11:00+30всв66280 0.0 10111345
14:00+34всв33200 0.0 10082015
17:00+35в22170 0.0 10061997
20:00+31юв23210 0.0 100730
22 апреля, чт
чт2223:00+30ююв34230 0.0 100844
02:00+29ю46250 0.0 100686
05:00+27ююв33270 0.0 100643
08:00+30ю56220 0.0 1008306
11:00+38зюз34100 0.0 10071383
14:00+41з3360 0.0 10043940
17:00+41зсз3450 0.0 10024315
20:00+34с2270 0.0 100313
23 апреля, пт
пт2323:00+33ю57100 0.0 100393
02:00+30ююз45250 0.0 100272
05:00+27ю47320 0.0 1002100
08:00+31вюв11270 0.0 1004227
11:00+37всв65180 0.0 10051109
14:00+40всв85110 0.0 10042548
17:00+39всв75120 0.0 10032842
20:00+34всв813170 0.0 1005437
24 апреля, сб
сб2423:00+31всв815220 0.0 1006498
02:00+28ююв34260 0.0 100884
05:00+27св510240 0.0 1008240
08:00+29всв69195 0.0 1009443
11:00+36всв441453 0.0 10101405
14:00+39св331136 0.0 10072265
17:00+40св21105 0.0 10052954
20:00+34вюв221431 0.0 100722
25 апреля, вс
вс2523:00+32в341572 0.0 100842
02:00+30всв34153 0.0 100844
05:00+29в33150 0.0 100837
08:00+32в34110 0.0 1011260
11:00+39вюв3380 0.0 10101216
14:00+42юв1180 0.0 10063060
17:00+42вюв2270 0.0 10043918
20:00+37юв3490 0.0 100432